ENGINEERING TRACK TESTING
Weather & Rail Temperature Monitoring

Weather station ALBANY

Rensselaer Passenger Sta.(Albany/Rensselaer NY)

Measurement History

Home Current History Weekly graphs

,

to download data from the start of , to the end of ,

Conditions for past 24 hours (since 09/01/2026 01:30 AM)

Time Track 3 E rail Track 3 E rail (B) Track 3 W rail Track 3 W rail (B) Outside Air
Temperature
Solar
Radiation
Max. Wind Humidity Air Pressure Rain
SpeedDir
09/02/2026 01:15 AM 62 °F 47 °F 65 °F 65 °F 65.4 °F 0 watt/m2 5 mph SSE 0 % 30.061 in Hg 0 in
09/02/2026 01:00 AM 62 °F 47 °F 65 °F 65 °F 65.7 °F 0 watt/m2 4 mph SSE 0 % 30.06 in Hg 0 in
09/02/2026 12:45 AM 62 °F 47 °F 65 °F 66 °F 65.8 °F 0 watt/m2 4 mph SE 0 % 30.052 in Hg 0 in
09/02/2026 12:30 AM 62 °F 47 °F 65 °F 66 °F 65.8 °F 0 watt/m2 6 mph SE 0 % 30.05 in Hg 0 in
09/02/2026 12:15 AM 62 °F 47 °F 65 °F 66 °F 65.8 °F 0 watt/m2 6 mph SE 0 % 30.043 in Hg 0 in
09/02/2026 12:00 AM 63 °F 47 °F 65 °F 66 °F 66 °F 0 watt/m2 6 mph SE 0 % 30.039 in Hg 0 in
09/01/2026 11:45 PM 63 °F 48 °F 65 °F 66 °F 66 °F 0 watt/m2 6 mph SE 0 % 30.033 in Hg 0 in
09/01/2026 11:30 PM 63 °F 48 °F 65 °F 66 °F 66.3 °F 0 watt/m2 7 mph SE 0 % 30.03 in Hg 0 in
09/01/2026 11:15 PM 63 °F 48 °F 66 °F 67 °F 66.5 °F 0 watt/m2 5 mph SE 0 % 30.024 in Hg 0 in
09/01/2026 11:00 PM 63 °F 48 °F 66 °F 67 °F 66.8 °F 0 watt/m2 6 mph SE 0 % 30.024 in Hg 0 in
09/01/2026 10:45 PM 64 °F 49 °F 66 °F 67 °F 67.1 °F 0 watt/m2 5 mph SSE 0 % 30.03 in Hg 0 in
09/01/2026 10:30 PM 64 °F 49 °F 66 °F 68 °F 67.1 °F 0 watt/m2 7 mph SSE 0 % 30.028 in Hg 0 in
09/01/2026 10:15 PM 64 °F 49 °F 67 °F 68 °F 67.5 °F 0 watt/m2 5 mph SE 0 % 30.038 in Hg 0 in
09/01/2026 10:00 PM 64 °F 49 °F 67 °F 68 °F 67.9 °F 0 watt/m2 6 mph SSE 0 % 30.035 in Hg 0 in
09/01/2026 09:45 PM 65 °F 50 °F 67 °F 68 °F 68.2 °F 0 watt/m2 6 mph SSE 0 % 30.03 in Hg 0 in
09/01/2026 09:30 PM 65 °F 50 °F 68 °F 69 °F 68.9 °F 0 watt/m2 5 mph SE 0 % 30.019 in Hg 0 in
09/01/2026 09:15 PM 65 °F 51 °F 68 °F 69 °F 69.5 °F 0 watt/m2 5 mph SE 0 % 30.018 in Hg 0 in
09/01/2026 09:00 PM 66 °F 51 °F 68 °F 70 °F 69.8 °F 0 watt/m2 3 mph SE 0 % 30.004 in Hg 0 in
09/01/2026 08:45 PM 66 °F 51 °F 68 °F 70 °F 70.3 °F 0 watt/m2 3 mph SE 0 % 29.997 in Hg 0 in
09/01/2026 08:30 PM 67 °F 52 °F 69 °F 70 °F 71.3 °F 0 watt/m2 3 mph SE 0 % 29.992 in Hg 0 in
09/01/2026 08:15 PM 67 °F 52 °F 69 °F 71 °F 71.8 °F 0 watt/m2 2 mph SE 0 % 29.988 in Hg 0 in
09/01/2026 08:00 PM 67 °F 52 °F 69 °F 71 °F 71.7 °F 0 watt/m2 3 mph SE 0 % 29.983 in Hg 0 in
09/01/2026 07:45 PM 68 °F 52 °F 70 °F 71 °F 72.5 °F 0 watt/m2 2 mph ESE 0 % 29.976 in Hg 0 in
09/01/2026 07:30 PM 68 °F 53 °F 70 °F 71 °F 72.5 °F 0 watt/m2 1 mph NE 0 % 29.98 in Hg 0 in
09/01/2026 07:15 PM 68 °F 53 °F 70 °F 72 °F 72.6 °F 0 watt/m2 1 mph NE 0 % 29.979 in Hg 0 in
09/01/2026 07:00 PM 68 °F 53 °F 70 °F 72 °F 72.8 °F 3 watt/m2 1 mph NE 0 % 29.979 in Hg 0 in
09/01/2026 06:45 PM 69 °F 53 °F 71 °F 72 °F 72.7 °F 15 watt/m2 1 mph NE 0 % 29.968 in Hg 0 in
09/01/2026 06:30 PM 69 °F 53 °F 71 °F 73 °F 72.7 °F 13 watt/m2 1 mph NE 0 % 29.978 in Hg 0 in
09/01/2026 06:15 PM 69 °F 54 °F 71 °F 73 °F 72.8 °F 12 watt/m2 0 mph --- 0 % 29.98 in Hg 0 in
09/01/2026 06:00 PM 70 °F 54 °F 72 °F 73 °F 73.1 °F 11 watt/m2 2 mph NNE 0 % 29.976 in Hg 0.01 in
09/01/2026 05:45 PM 70 °F 55 °F 73 °F 74 °F 73.3 °F 16 watt/m2 2 mph N 0 % 29.972 in Hg 0 in
09/01/2026 05:30 PM 70 °F 55 °F 73 °F 74 °F 73.4 °F 35 watt/m2 0 mph --- 0 % 29.964 in Hg 0 in
09/01/2026 05:15 PM 70 °F 55 °F 73 °F 74 °F 73.3 °F 50 watt/m2 2 mph N 0 % 29.964 in Hg 0 in
09/01/2026 05:00 PM 70 °F 55 °F 73 °F 74 °F 73.3 °F 58 watt/m2 3 mph NW 0 % 29.963 in Hg 0 in
09/01/2026 04:45 PM 70 °F 55 °F 74 °F 74 °F 73.3 °F 78 watt/m2 0 mph --- 0 % 29.96 in Hg 0 in
09/01/2026 04:30 PM 70 °F 55 °F 73 °F 74 °F 73.4 °F 69 watt/m2 0 mph --- 0 % 29.962 in Hg 0 in
09/01/2026 04:15 PM 70 °F 55 °F 73 °F 74 °F 73.3 °F 75 watt/m2 2 mph NNW 0 % 29.963 in Hg 0 in
09/01/2026 04:00 PM 70 °F 55 °F 73 °F 74 °F 73.5 °F 103 watt/m2 4 mph NNW 0 % 29.959 in Hg 0 in
09/01/2026 03:45 PM 70 °F 55 °F 73 °F 74 °F 73.4 °F 140 watt/m2 4 mph NNW 0 % 29.956 in Hg 0 in
09/01/2026 03:30 PM 70 °F 55 °F 73 °F 74 °F 73.3 °F 187 watt/m2 4 mph NW 0 % 29.956 in Hg 0 in
09/01/2026 03:15 PM 71 °F 56 °F 73 °F 75 °F 73.2 °F 158 watt/m2 6 mph NNW 0 % 29.951 in Hg 0 in
09/01/2026 03:00 PM 71 °F 56 °F 73 °F 75 °F 73.3 °F 178 watt/m2 4 mph NNW 0 % 29.951 in Hg 0 in
09/01/2026 02:45 PM 71 °F 56 °F 73 °F 75 °F 73.1 °F 138 watt/m2 4 mph NNW 0 % 29.949 in Hg 0 in
09/01/2026 02:30 PM 71 °F 56 °F 73 °F 75 °F 73.2 °F 111 watt/m2 4 mph N 0 % 29.953 in Hg 0.01 in
09/01/2026 02:15 PM 72 °F 57 °F 73 °F 76 °F 73.2 °F 105 watt/m2 4 mph NNW 0 % 29.955 in Hg 0 in
09/01/2026 02:00 PM 73 °F 57 °F 74 °F 77 °F 73.1 °F 81 watt/m2 5 mph NNW 0 % 29.954 in Hg 0 in
09/01/2026 01:45 PM 73 °F 58 °F 74 °F 77 °F 73.2 °F 166 watt/m2 2 mph ENE 0 % 29.949 in Hg 0 in
09/01/2026 01:30 PM 73 °F 57 °F 73 °F 76 °F 73 °F 159 watt/m2 2 mph ESE 0 % 29.944 in Hg 0 in
09/01/2026 01:15 PM 72 °F 57 °F 73 °F 75 °F 73 °F 207 watt/m2 3 mph ESE 0 % 29.946 in Hg 0 in
09/01/2026 01:00 PM 71 °F 55 °F 72 °F 74 °F 72.5 °F 281 watt/m2 2 mph NE 0 % 29.944 in Hg 0 in
09/01/2026 12:45 PM 69 °F 54 °F 70 °F 73 °F 71.6 °F 132 watt/m2 2 mph NE 0 % 29.946 in Hg 0 in
09/01/2026 12:30 PM 69 °F 54 °F 70 °F 72 °F 71.5 °F 78 watt/m2 1 mph NE 0 % 29.95 in Hg 0 in
09/01/2026 12:15 PM 69 °F 54 °F 70 °F 72 °F 71.6 °F 99 watt/m2 2 mph NE 0 % 29.952 in Hg 0 in
09/01/2026 12:00 PM 68 °F 53 °F 69 °F 72 °F 71.4 °F 118 watt/m2 2 mph NE 0 % 29.947 in Hg 0 in
09/01/2026 11:45 AM 68 °F 53 °F 69 °F 71 °F 71.4 °F 79 watt/m2 3 mph NE 0 % 29.945 in Hg 0.05 in
09/01/2026 11:30 AM 68 °F 53 °F 69 °F 71 °F 71.6 °F 46 watt/m2 9 mph SE 0 % 29.938 in Hg 0.08 in
09/01/2026 11:15 AM 68 °F 53 °F 69 °F 72 °F 71.7 °F 34 watt/m2 6 mph NNW 0 % 29.952 in Hg 0.01 in
09/01/2026 11:00 AM 68 °F 53 °F 70 °F 72 °F 71.6 °F 69 watt/m2 0 mph --- 0 % 29.954 in Hg 0 in
09/01/2026 10:45 AM 68 °F 53 °F 70 °F 72 °F 71.7 °F 63 watt/m2 0 mph --- 0 % 29.953 in Hg 0 in
09/01/2026 10:30 AM 68 °F 53 °F 70 °F 71 °F 71.7 °F 77 watt/m2 0 mph --- 0 % 29.949 in Hg 0 in
09/01/2026 10:15 AM 68 °F 53 °F 69 °F 71 °F 71.6 °F 91 watt/m2 1 mph N 0 % 29.954 in Hg 0 in
09/01/2026 10:00 AM 67 °F 52 °F 69 °F 71 °F 71.4 °F 79 watt/m2 0 mph --- 0 % 29.957 in Hg 0 in
09/01/2026 09:45 AM 67 °F 52 °F 69 °F 70 °F 71.2 °F 53 watt/m2 2 mph N 0 % 29.96 in Hg 0 in
09/01/2026 09:30 AM 67 °F 52 °F 68 °F 70 °F 71.2 °F 51 watt/m2 2 mph NNE 0 % 29.963 in Hg 0 in
09/01/2026 09:15 AM 67 °F 52 °F 68 °F 70 °F 71.1 °F 71 watt/m2 3 mph NNW 0 % 29.966 in Hg 0 in
09/01/2026 09:00 AM 66 °F 52 °F 68 °F 70 °F 71 °F 47 watt/m2 0 mph --- 0 % 29.972 in Hg 0.01 in
09/01/2026 08:45 AM 66 °F 51 °F 68 °F 70 °F 70.7 °F 51 watt/m2 1 mph N 0 % 29.974 in Hg 0.01 in
09/01/2026 08:30 AM 66 °F 51 °F 67 °F 69 °F 70.6 °F 41 watt/m2 1 mph N 0 % 29.977 in Hg 0.01 in
09/01/2026 08:15 AM 66 °F 51 °F 67 °F 69 °F 70.6 °F 57 watt/m2 1 mph N 0 % 29.97 in Hg 0 in
09/01/2026 08:00 AM 65 °F 51 °F 67 °F 69 °F 70.5 °F 58 watt/m2 1 mph N 0 % 29.97 in Hg 0.01 in
09/01/2026 07:45 AM 65 °F 50 °F 67 °F 68 °F 70.4 °F 21 watt/m2 3 mph N 0 % 29.973 in Hg 0.02 in
09/01/2026 07:30 AM 65 °F 50 °F 67 °F 68 °F 70.2 °F 5 watt/m2 5 mph NNW 0 % 29.98 in Hg 0.09 in
09/01/2026 07:15 AM 65 °F 50 °F 67 °F 68 °F 70.1 °F 0 watt/m2 4 mph NNW 0 % 29.973 in Hg 0.07 in
09/01/2026 07:00 AM 65 °F 50 °F 67 °F 68 °F 70.2 °F 3 watt/m2 5 mph NNW 0 % 29.967 in Hg 0.17 in
09/01/2026 06:45 AM 65 °F 50 °F 67 °F 68 °F 70.2 °F 0 watt/m2 4 mph NNW 0 % 29.969 in Hg 0.01 in
09/01/2026 06:30 AM 65 °F 50 °F 67 °F 68 °F 69.9 °F 0 watt/m2 5 mph SE 0 % 29.961 in Hg 0.01 in
09/01/2026 06:15 AM 65 °F 50 °F 67 °F 69 °F 69.8 °F 0 watt/m2 4 mph SE 0 % 29.941 in Hg 0.16 in
09/01/2026 06:00 AM 65 °F 50 °F 68 °F 69 °F 69.9 °F 0 watt/m2 2 mph ENE 0 % 29.96 in Hg 0.1 in
09/01/2026 05:45 AM 65 °F 51 °F 68 °F 69 °F 69.7 °F 0 watt/m2 2 mph E 0 % 29.946 in Hg 0.05 in
09/01/2026 05:30 AM 66 °F 51 °F 69 °F 70 °F 69.8 °F 0 watt/m2 2 mph E 0 % 29.95 in Hg 0.11 in
09/01/2026 05:15 AM 67 °F 52 °F 69 °F 70 °F 69.9 °F 0 watt/m2 3 mph E 0 % 29.961 in Hg 0 in
09/01/2026 05:00 AM 67 °F 52 °F 70 °F 71 °F 70 °F 0 watt/m2 5 mph E 0 % 29.959 in Hg 0 in
09/01/2026 04:45 AM 67 °F 53 °F 70 °F 71 °F 70.2 °F 0 watt/m2 5 mph E 0 % 29.961 in Hg 0 in
09/01/2026 04:30 AM 68 °F 53 °F 70 °F 71 °F 70.2 °F 0 watt/m2 5 mph E 0 % 29.967 in Hg 0 in
09/01/2026 04:15 AM 68 °F 53 °F 70 °F 71 °F 70.3 °F 0 watt/m2 0 mph --- 0 % 29.97 in Hg 0 in
09/01/2026 04:00 AM 68 °F 53 °F 70 °F 71 °F 70.4 °F 0 watt/m2 2 mph SE 0 % 29.972 in Hg 0 in
09/01/2026 03:45 AM 68 °F 53 °F 71 °F 72 °F 70.6 °F 0 watt/m2 4 mph SE 0 % 29.975 in Hg 0 in
09/01/2026 03:30 AM 68 °F 53 °F 71 °F 72 °F 70.5 °F 0 watt/m2 5 mph SE 0 % 29.975 in Hg 0 in
09/01/2026 03:15 AM 68 °F 53 °F 71 °F 72 °F 70.5 °F 0 watt/m2 5 mph SE 0 % 29.981 in Hg 0 in
09/01/2026 03:00 AM 68 °F 53 °F 71 °F 72 °F 70.4 °F 0 watt/m2 5 mph E 0 % 29.982 in Hg 0 in
09/01/2026 02:45 AM 68 °F 53 °F 71 °F 72 °F 70.3 °F 0 watt/m2 5 mph E 0 % 29.979 in Hg 0 in
09/01/2026 02:30 AM 68 °F 53 °F 71 °F 72 °F 70.4 °F 0 watt/m2 3 mph ESE 0 % 29.983 in Hg 0 in
09/01/2026 02:15 AM 68 °F 53 °F 71 °F 72 °F 70.6 °F 0 watt/m2 5 mph SE 0 % 29.997 in Hg 0 in
09/01/2026 02:00 AM 68 °F 53 °F 71 °F 72 °F 70.5 °F 0 watt/m2 3 mph ESE 0 % 30.006 in Hg 0 in
09/01/2026 01:45 AM 68 °F 53 °F 71 °F 72 °F 70.6 °F 0 watt/m2 5 mph SE 0 % 30.003 in Hg 0 in

Alarms Station information Line AR Subdivision RENSSELAER